Time,TemperatureF,DewpointF,PressureIn,WindDirection,WindDirectionDegrees,WindSpeedMPH,WindSpeedGustMPH,Humidity,HourlyPrecipIn,Conditions,Clouds,dailyrainin,SoftwareType,DateUTC
2013-01-26 00:03:00,6.0,0.0,-100.00,North,10,8.0,11.0,75,0.03,,,-99.99,,2013-01-26 05:03:00,
2013-01-26 00:12:00,6.0,0.0,-100.00,North,10,8.0,11.0,76,0.04,,,-99.99,,2013-01-26 05:12:00,
2013-01-26 00:23:00,6.0,1.0,-100.00,North,5,7.0,11.0,78,0.04,,,-99.99,,2013-01-26 05:23:00,
2013-01-26 00:33:00,6.0,1.0,-100.00,North,5,8.0,12.0,79,0.01,,,-99.99,,2013-01-26 05:33:00,
2013-01-26 00:41:00,6.0,1.0,-100.00,North,5,7.0,10.0,80,0.01,,,-99.99,,2013-01-26 05:41:00,
2013-01-26 00:52:00,6.0,1.0,-100.00,North,0,7.0,9.0,81,0.01,,,-99.99,,2013-01-26 05:52:00,
2013-01-26 01:03:00,6.0,2.0,-100.00,North,0,6.0,9.0,83,0.00,,,-99.99,,2013-01-26 06:03:00,
2013-01-26 01:12:00,6.0,2.0,-100.00,NNW,345,4.0,7.0,82,0.01,,,-99.99,,2013-01-26 06:12:00,
2013-01-26 01:21:00,6.0,2.0,-100.00,North,5,6.0,9.0,82,0.00,,,-99.99,,2013-01-26 06:21:00,
2013-01-26 01:32:00,6.0,2.0,-100.00,North,10,5.0,8.0,82,0.00,,,-99.99,,2013-01-26 06:32:00,
2013-01-26 01:42:00,5.0,2.0,-100.00,NNE,20,3.0,6.0,84,0.00,,,-99.99,,2013-01-26 06:42:00,
2013-01-26 01:52:00,5.0,2.0,-100.00,NNE,20,2.0,4.0,85,0.00,,,-99.99,,2013-01-26 06:52:00,
2013-01-26 02:02:00,5.0,2.0,-100.00,North,0,2.0,4.0,85,0.00,,,-99.99,,2013-01-26 07:02:00,
2013-01-26 02:12:00,5.0,1.0,-100.00,North,-999,-999.0,-999.0,84,-99.99,,,-99.99,,2013-01-26 07:12:00,
2013-01-26 02:21:00,5.0,1.0,-100.00,North,355,4.0,6.0,83,0.00,,,-99.99,,2013-01-26 07:21:00,
2013-01-26 02:33:00,5.0,1.0,-100.00,North,350,4.0,7.0,82,0.00,,,-99.99,,2013-01-26 07:33:00,
2013-01-26 02:41:00,5.0,0.0,-100.00,North,355,7.0,9.0,80,0.00,,,-99.99,,2013-01-26 07:41:00,
2013-01-26 02:51:00,5.0,0.0,-100.00,NNW,340,7.0,11.0,78,0.00,,,-99.99,,2013-01-26 07:51:00,
2013-01-26 03:02:00,5.0,0.0,-100.00,North,0,7.0,12.0,77,0.00,,,-99.99,,2013-01-26 08:02:00,
2013-01-26 03:11:00,5.0,-1.0,-100.00,North,5,7.0,11.0,73,0.00,,,-99.99,,2013-01-26 08:11:00,
2013-01-26 03:21:00,5.0,-1.0,-100.00,North,5,9.0,11.0,72,0.00,,,-99.99,,2013-01-26 08:21:00,
2013-01-26 03:32:00,5.0,-2.0,-100.00,North,350,7.0,12.0,72,0.00,,,-99.99,,2013-01-26 08:32:00,
2013-01-26 03:42:00,5.0,-2.0,-100.00,North,355,9.0,12.0,71,0.00,,,-99.99,,2013-01-26 08:42:00,
2013-01-26 03:53:00,5.0,-2.0,-100.00,North,0,12.0,16.0,72,0.00,,,-99.99,,2013-01-26 08:53:00,
2013-01-26 04:02:00,5.0,-2.0,-100.00,North,355,9.0,14.0,73,0.00,,,-99.99,,2013-01-26 09:02:00,
2013-01-26 04:11:00,4.0,-2.0,-100.00,North,355,9.0,14.0,75,0.00,,,-99.99,,2013-01-26 09:11:00,
2013-01-26 04:22:00,4.0,-2.0,-100.00,North,0,11.0,15.0,75,0.00,,,-99.99,,2013-01-26 09:22:00,
2013-01-26 04:32:00,4.0,-2.0,-100.00,North,0,9.0,14.0,75,0.00,,,-99.99,,2013-01-26 09:32:00,
2013-01-26 04:42:00,4.0,-2.0,-100.00,North,0,9.0,12.0,76,0.00,,,-99.99,,2013-01-26 09:42:00,
2013-01-26 04:51:00,4.0,-2.0,-100.00,North,5,9.0,12.0,76,0.00,,,-99.99,,2013-01-26 09:51:00,
2013-01-26 05:01:00,4.0,-2.0,-100.00,North,355,8.0,12.0,76,0.00,,,-99.99,,2013-01-26 10:01:00,
2013-01-26 05:12:00,3.0,-2.0,-100.00,North,5,9.0,12.0,77,0.00,,,-99.99,,2013-01-26 10:12:00,
2013-01-26 05:21:00,3.0,-2.0,-100.00,North,0,6.0,10.0,77,0.00,,,-99.99,,2013-01-26 10:21:00,
2013-01-26 05:32:00,3.0,-2.0,-100.00,North,0,8.0,11.0,77,0.00,,,-99.99,,2013-01-26 10:32:00,
2013-01-26 05:42:00,3.0,-2.0,-100.00,North,5,9.0,13.0,77,0.00,,,-99.99,,2013-01-26 10:42:00,
2013-01-26 05:52:00,3.0,-2.0,-100.00,North,10,8.0,15.0,76,0.00,,,-99.99,,2013-01-26 10:52:00,
2013-01-26 06:01:00,3.0,-2.0,-100.00,North,0,9.0,16.0,77,0.00,,,-99.99,,2013-01-26 11:01:00,
2013-01-26 06:12:00,3.0,-3.0,-100.00,North,0,10.0,16.0,77,0.00,,,-99.99,,2013-01-26 11:12:00,
2013-01-26 06:22:00,3.0,-3.0,-100.00,North,5,8.0,16.0,77,0.00,,,-99.99,,2013-01-26 11:22:00,
2013-01-26 06:32:00,3.0,-3.0,-100.00,North,350,7.0,16.0,76,0.00,,,-99.99,,2013-01-26 11:32:00,
2013-01-26 06:42:00,3.0,-3.0,-100.00,North,0,7.0,14.0,76,0.00,,,-99.99,,2013-01-26 11:42:00,
2013-01-26 06:52:00,3.0,-3.0,-100.00,North,355,7.0,13.0,76,0.00,,,-99.99,,2013-01-26 11:52:00,
2013-01-26 07:02:00,2.0,-3.0,-100.00,NNW,340,6.0,11.0,77,0.00,,,-99.99,,2013-01-26 12:02:00,
2013-01-26 07:12:00,2.0,-3.0,-100.00,NNW,345,6.0,9.0,77,0.00,,,-99.99,,2013-01-26 12:12:00,
2013-01-26 07:22:00,2.0,-3.0,-100.00,North,5,7.0,12.0,77,0.00,,,-99.99,,2013-01-26 12:22:00,
2013-01-26 07:33:00,2.0,-3.0,-100.00,North,-999,-999.0,-999.0,77,-99.99,,,-99.99,,2013-01-26 12:33:00,
2013-01-26 07:42:00,2.0,-3.0,-100.00,NNE,15,6.0,12.0,77,0.00,,,-99.99,,2013-01-26 12:42:00,
2013-01-26 07:52:00,2.0,-3.0,-100.00,North,5,9.0,12.0,78,0.00,,,-99.99,,2013-01-26 12:52:00,
2013-01-26 08:03:00,2.0,-3.0,-100.00,North,10,7.0,12.0,78,0.00,,,-99.99,,2013-01-26 13:03:00,
2013-01-26 08:12:00,2.0,-3.0,-100.00,North,-999,-999.0,-999.0,77,0.00,,,-99.99,,2013-01-26 13:12:00,
2013-01-26 08:22:00,2.0,-4.0,-100.00,North,5,10.0,14.0,76,0.00,,,-99.99,,2013-01-26 13:22:00,
2013-01-26 08:33:00,2.0,-3.0,-100.00,North,5,9.0,13.0,76,0.00,,,-99.99,,2013-01-26 13:33:00,
2013-01-26 08:42:00,2.0,-3.0,-100.00,NNE,15,7.0,11.0,76,0.00,,,-99.99,,2013-01-26 13:42:00,
2013-01-26 08:52:00,3.0,-3.0,-100.00,North,5,12.0,19.0,75,0.00,,,-99.99,,2013-01-26 13:52:00,
2013-01-26 09:03:00,3.0,-4.0,-100.00,North,5,10.0,16.0,73,0.00,,,-99.99,,2013-01-26 14:03:00,
2013-01-26 09:12:00,3.0,-4.0,-100.00,North,5,10.0,18.0,71,0.00,,,-99.99,,2013-01-26 14:12:00,
2013-01-26 09:22:00,4.0,-4.0,-100.00,North,0,9.0,13.0,69,0.00,,,-99.99,,2013-01-26 14:22:00,
2013-01-26 09:32:00,4.0,-5.0,-100.00,North,5,11.0,17.0,64,0.00,,,-99.99,,2013-01-26 14:32:00,
2013-01-26 09:43:00,4.0,-5.0,-100.00,North,0,11.0,15.0,63,0.00,,,-99.99,,2013-01-26 14:43:00,
2013-01-26 09:52:00,5.0,-5.0,-100.00,North,5,9.0,12.0,62,0.00,,,-99.99,,2013-01-26 14:52:00,
2013-01-26 10:03:00,6.0,-5.0,-100.00,North,0,6.0,13.0,61,0.00,,,-99.99,,2013-01-26 15:03:00,
2013-01-26 10:12:00,6.0,-5.0,-100.00,North,355,9.0,15.0,58,0.00,,,-99.99,,2013-01-26 15:12:00,
2013-01-26 10:22:00,6.0,-6.0,-100.00,North,350,8.0,14.0,56,0.00,,,-99.99,,2013-01-26 15:22:00,
2013-01-26 10:32:00,7.0,-7.0,-100.00,North,0,8.0,14.0,52,0.00,,,-99.99,,2013-01-26 15:32:00,
2013-01-26 10:43:00,7.0,-7.0,-100.00,North,5,9.0,15.0,51,0.00,,,-99.99,,2013-01-26 15:43:00,
2013-01-26 10:52:00,7.0,-8.0,-100.00,North,355,11.0,14.0,50,0.00,,,-99.99,,2013-01-26 15:52:00,
2013-01-26 11:02:00,8.0,-7.0,-100.00,North,0,10.0,17.0,50,0.00,,,-99.99,,2013-01-26 16:02:00,
2013-01-26 11:12:00,8.0,-9.0,-100.00,North,350,12.0,19.0,46,0.00,,,-99.99,,2013-01-26 16:12:00,
2013-01-26 11:22:00,8.0,-8.0,-100.00,North,355,12.0,20.0,48,0.00,,,-99.99,,2013-01-26 16:22:00,
2013-01-26 11:33:00,8.0,-7.0,-100.00,North,10,12.0,21.0,49,0.00,,,-99.99,,2013-01-26 16:33:00,
2013-01-26 11:42:00,9.0,-7.0,-100.00,North,355,10.0,17.0,48,0.00,,,-99.99,,2013-01-26 16:42:00,
2013-01-26 11:53:00,9.0,-8.0,-100.00,North,5,13.0,19.0,46,0.00,,,-99.99,,2013-01-26 16:53:00,
2013-01-26 12:03:00,9.0,-7.0,-100.00,North,350,12.0,19.0,46,0.00,,,-99.99,,2013-01-26 17:03:00,
2013-01-26 12:13:00,10.0,-8.0,-100.00,NNW,340,7.0,15.0,43,0.00,,,-99.99,,2013-01-26 17:13:00,
2013-01-26 12:22:00,10.0,-7.0,-100.00,North,350,10.0,16.0,45,0.00,,,-99.99,,2013-01-26 17:22:00,
2013-01-26 12:33:00,11.0,-8.0,-100.00,NW,325,7.0,19.0,42,0.00,,,-99.99,,2013-01-26 17:33:00,
2013-01-26 12:42:00,11.0,-8.0,-100.00,North,0,12.0,19.0,41,0.00,,,-99.99,,2013-01-26 17:42:00,
2013-01-26 12:52:00,11.0,-9.0,-100.00,North,355,12.0,19.0,38,0.00,,,-99.99,,2013-01-26 17:52:00,
2013-01-26 13:02:00,11.0,-10.0,-100.00,North,355,13.0,21.0,36,0.00,,,-99.99,,2013-01-26 18:02:00,
2013-01-26 13:12:00,12.0,-12.0,-100.00,NNW,330,9.0,19.0,32,0.00,,,-99.99,,2013-01-26 18:12:00,
2013-01-26 13:22:00,12.0,-11.0,-100.00,NNW,345,10.0,24.0,33,0.00,,,-99.99,,2013-01-26 18:22:00,
2013-01-26 13:33:00,12.0,-12.0,-100.00,North,0,14.0,24.0,32,0.00,,,-99.99,,2013-01-26 18:33:00,
2013-01-26 13:42:00,11.0,-12.0,-100.00,North,0,17.0,24.0,32,0.00,,,-99.99,,2013-01-26 18:42:00,
2013-01-26 13:52:00,12.0,-11.0,-100.00,North,355,12.0,23.0,33,0.00,,,-99.99,,2013-01-26 18:52:00,
2013-01-26 14:03:00,12.0,-12.0,-100.00,North,10,12.0,21.0,32,0.00,,,-99.99,,2013-01-26 19:03:00,
2013-01-26 14:12:00,13.0,-12.0,-100.00,NNW,335,9.0,19.0,31,0.00,,,-99.99,,2013-01-26 19:12:00,
2013-01-26 14:22:00,13.0,-12.0,-100.00,NNW,330,11.0,19.0,30,0.00,,,-99.99,,2013-01-26 19:22:00,
2013-01-26 14:32:00,13.0,-12.0,-100.00,NNW,330,9.0,18.0,30,0.00,,,-99.99,,2013-01-26 19:32:00,
2013-01-26 14:42:00,14.0,-12.0,-100.00,North,0,11.0,20.0,30,0.00,,,-99.99,,2013-01-26 19:42:00,
2013-01-26 14:52:00,13.0,-12.0,-100.00,North,355,16.0,26.0,30,0.00,,,-99.99,,2013-01-26 19:52:00,
2013-01-26 15:02:00,13.0,-14.0,-100.00,North,0,17.0,24.0,28,0.00,,,-99.99,,2013-01-26 20:02:00,
2013-01-26 15:11:00,13.0,-14.0,-100.00,North,355,12.0,24.0,29,0.00,,,-99.99,,2013-01-26 20:11:00,
2013-01-26 15:22:00,13.0,-13.0,-100.00,North,350,10.0,18.0,29,0.00,,,-99.99,,2013-01-26 20:22:00,
2013-01-26 15:32:00,13.0,-12.0,-100.00,NW,325,11.0,19.0,31,0.00,,,-99.99,,2013-01-26 20:32:00,
2013-01-26 15:42:00,12.0,-12.0,-100.00,North,350,7.0,22.0,32,0.00,,,-99.99,,2013-01-26 20:42:00,
2013-01-26 15:52:00,11.0,-13.0,-100.00,North,5,11.0,23.0,32,0.00,,,-99.99,,2013-01-26 20:52:00,
2013-01-26 16:02:00,11.0,-12.0,-100.00,NNW,345,9.0,21.0,32,0.00,,,-99.99,,2013-01-26 21:02:00,
2013-01-26 16:12:00,11.0,-15.0,-100.00,NW,325,14.0,27.0,28,0.00,,,-99.99,,2013-01-26 21:12:00,
2013-01-26 16:22:00,11.0,-15.0,-100.00,North,355,15.0,27.0,29,0.00,,,-99.99,,2013-01-26 21:22:00,
2013-01-26 16:32:00,10.0,-17.0,-100.00,North,0,22.0,32.0,26,0.00,,,-99.99,,2013-01-26 21:32:00,
2013-01-26 16:42:00,10.0,-17.0,-100.00,NNW,345,14.0,30.0,28,0.00,,,-99.99,,2013-01-26 21:42:00,
2013-01-26 16:52:00,10.0,-16.0,-100.00,North,0,12.0,29.0,28,0.00,,,-99.99,,2013-01-26 21:52:00,
2013-01-26 17:01:00,10.0,-16.0,-100.00,North,350,16.0,25.0,28,0.00,,,-99.99,,2013-01-26 22:01:00,
2013-01-26 17:12:00,9.0,-15.0,-100.00,North,350,9.0,22.0,31,0.00,,,-99.99,,2013-01-26 22:12:00,
2013-01-26 17:22:00,9.0,-15.0,-100.00,NNW,330,12.0,21.0,31,0.00,,,-99.99,,2013-01-26 22:22:00,
2013-01-26 17:32:00,9.0,-15.0,-100.00,NNW,345,16.0,24.0,32,0.00,,,-99.99,,2013-01-26 22:32:00,
2013-01-26 17:42:00,9.0,-14.0,-100.00,North,355,11.0,23.0,34,0.00,,,-99.99,,2013-01-26 22:42:00,
2013-01-26 17:52:00,8.0,-12.0,-100.00,North,355,14.0,21.0,37,0.00,,,-99.99,,2013-01-26 22:52:00,
2013-01-26 18:02:00,8.0,-11.0,-100.00,North,5,9.0,23.0,39,0.00,,,-99.99,,2013-01-26 23:02:00,
2013-01-26 18:12:00,8.0,-10.0,-100.00,North,350,9.0,21.0,41,0.00,,,-99.99,,2013-01-26 23:12:00,
2013-01-26 18:22:00,8.0,-10.0,-100.00,NNW,340,8.0,21.0,42,0.00,,,-99.99,,2013-01-26 23:22:00,
2013-01-26 18:32:00,8.0,-10.0,-100.00,North,5,10.0,17.0,43,0.00,,,-99.99,,2013-01-26 23:32:00,
2013-01-26 18:42:00,8.0,-10.0,-100.00,North,355,9.0,21.0,44,0.00,,,-99.99,,2013-01-26 23:42:00,
2013-01-26 18:52:00,7.0,-9.0,-100.00,NW,325,7.0,15.0,46,0.00,,,-99.99,,2013-01-26 23:52:00,
2013-01-26 19:02:00,7.0,-9.0,-100.00,North,350,9.0,15.0,46,0.00,,,-99.99,,2013-01-27 00:02:00,
2013-01-26 19:11:00,7.0,-8.0,-100.00,NNW,335,7.0,14.0,48,0.00,,,-99.99,,2013-01-27 00:11:00,
2013-01-26 19:21:00,7.0,-8.0,-100.00,NNW,340,9.0,16.0,49,0.00,,,-99.99,,2013-01-27 00:21:00,
2013-01-26 19:32:00,7.0,-8.0,-100.00,North,0,11.0,22.0,50,0.00,,,-99.99,,2013-01-27 00:32:00,
2013-01-26 19:42:00,7.0,-8.0,-100.00,North,5,12.0,17.0,50,0.00,,,-99.99,,2013-01-27 00:42:00,
2013-01-26 19:51:00,7.0,-7.0,-100.00,North,5,9.0,15.0,51,0.00,,,-99.99,,2013-01-27 00:51:00,
2013-01-26 20:01:00,7.0,-7.0,-100.00,North,350,8.0,12.0,52,0.00,,,-99.99,,2013-01-27 01:01:00,
2013-01-26 20:11:00,6.0,-7.0,-100.00,North,355,9.0,15.0,54,0.00,,,-99.99,,2013-01-27 01:11:00,
2013-01-26 20:22:00,6.0,-6.0,-100.00,NNW,340,7.0,14.0,55,0.00,,,-99.99,,2013-01-27 01:22:00,
2013-01-26 20:32:00,6.0,-6.0,-100.00,North,5,9.0,13.0,56,0.00,,,-99.99,,2013-01-27 01:32:00,
2013-01-26 20:42:00,6.0,-5.0,-100.00,North,5,12.0,17.0,56,0.00,,,-99.99,,2013-01-27 01:42:00,
2013-01-26 20:52:00,6.0,-5.0,-100.00,North,0,9.0,15.0,58,0.00,,,-99.99,,2013-01-27 01:52:00,
2013-01-26 21:01:00,6.0,-5.0,-100.00,North,0,7.0,12.0,59,0.00,,,-99.99,,2013-01-27 02:01:00,
2013-01-26 21:12:00,6.0,-5.0,-100.00,NNW,345,6.0,8.0,61,0.00,,,-99.99,,2013-01-27 02:12:00,
2013-01-26 21:22:00,5.0,-5.0,-100.00,NNW,340,6.0,12.0,61,0.00,,,-99.99,,2013-01-27 02:22:00,
2013-01-26 21:32:00,6.0,-5.0,-100.00,NNW,340,6.0,13.0,62,0.00,,,-99.99,,2013-01-27 02:32:00,
2013-01-26 21:42:00,6.0,-4.0,-100.00,North,5,7.0,12.0,62,0.00,,,-99.99,,2013-01-27 02:42:00,
2013-01-26 21:52:00,6.0,-4.0,-100.00,NNW,340,7.0,12.0,63,0.00,,,-99.99,,2013-01-27 02:52:00,
2013-01-26 22:02:00,6.0,-3.0,-100.00,NNW,330,6.0,14.0,64,0.00,,,-99.99,,2013-01-27 03:02:00,
2013-01-26 22:11:00,6.0,-3.0,-100.00,NNW,330,7.0,16.0,65,0.00,,,-99.99,,2013-01-27 03:11:00,
2013-01-26 22:21:00,6.0,-3.0,-100.00,NNW,340,7.0,18.0,65,0.00,,,-99.99,,2013-01-27 03:21:00,
2013-01-26 22:32:00,6.0,-3.0,-100.00,NNW,335,11.0,16.0,65,0.00,,,-99.99,,2013-01-27 03:32:00,
2013-01-26 22:42:00,6.0,-3.0,-100.00,North,0,8.0,13.0,66,0.00,,,-99.99,,2013-01-27 03:42:00,
2013-01-26 22:51:00,6.0,-2.0,-100.00,NNW,345,5.0,16.0,66,0.00,,,-99.99,,2013-01-27 03:51:00,
2013-01-26 23:02:00,6.0,-2.0,-100.00,NNW,345,8.0,13.0,66,0.00,,,-99.99,,2013-01-27 04:02:00,
2013-01-26 23:11:00,6.0,-2.0,-100.00,North,350,4.0,12.0,67,0.00,,,-99.99,,2013-01-27 04:11:00,
2013-01-26 23:21:00,6.0,-2.0,-100.00,NNW,345,6.0,11.0,68,0.00,,,-99.99,,2013-01-27 04:21:00,
2013-01-26 23:32:00,6.0,-2.0,-100.00,NNW,335,7.0,13.0,69,0.00,,,-99.99,,2013-01-27 04:32:00,
2013-01-26 23:41:00,6.0,-2.0,-100.00,NNW,335,8.0,16.0,68,0.00,,,-99.99,,2013-01-27 04:41:00,
2013-01-26 23:51:00,6.0,-2.0,-100.00,North,0,10.0,19.0,68,0.00,,,-99.99,,2013-01-27 04:51:00,